User: anonymous   Login
Location: Unspecified
(49.2170°N, 0.0000°E)
Time: 04:22:05
(UTC+00:00)
Language:

S-56A Canister/Altair - Orbit

View from above orbital plane
View from above orbital plane
View from above satellite
View from above satellite

Ground track
Ground track

The orbit data is extracted from the following two-line orbital elements,

1 00082U 61004B   21213.45730430 -.00000111  00000-0 -64562-4 0  9998
2 00082  38.8648 120.1898 1176630 262.3659  84.2129 12.26028735858132
Epoch (UTC): 01 August 2021 10:58:31
Eccentricity: 0.1176630
inclination: 38.8648°
perigee height: 631 km
apogee height: 2501 km
right ascension of ascending node: 120.1898°
argument of perigee: 262.3659°
revolutions per day: 12.26028735
mean anomaly at epoch: 84.2129°
orbit number at epoch: 85813

The dashed part of the orbit path shows where the satellite is in the earth's shadow,  

DLR